Hourly Weather Roundup
Issued by NWS Central Illinois

Home | Current Version | Previous Version | Text Only | Print | Product List | Glossary On
Versions: 1 2 3 4 5 6 7 8 9 10 11 12 13 14 15 16 17 18 19 20 21 22 23 24 25 26 27 28 29 30 31 32 33 34 35 36 37 38 39 40 41 42 43 44 45 46 47 48 49 50
000
NZUS43 KILX 231410
HWRILX

Area Weather Roundup
National Weather Service Lincoln IL
800 AM CST TUE JAN 23 2018

NOTE:  "FAIR" indicates few or no clouds below 12,000 feet, with
       no sigificant weather and/or obstructions to visibility.


CITY           SKY/WX    TMP DP  RH WIND       PRES   REMARKS
Bloomington    CLOUDY    34  32  92 NW16      29.77R WCI  24
Champaign      CLOUDY    35  34  96 W17       29.76R FOG     WCI  25
Danville       CLOUDY    33  33  97 SW13      29.72R FOG     WCI  24
Decatur        CLOUDY    36  36 100 W14G22    29.80R FOG     WCI  27
Effingham      CLOUDY    36  36 100 SW15      29.86R FOG     WCI  26
Flora          CLOUDY    37  33  85 W16G24    29.87R WCI  28
Galesburg      CLOUDY    32  29  87 NW16      29.84R WCI  21
Jacksonville   CLOUDY    33  30  91 W15G25    29.87R WCI  22
Lacon          CLOUDY    33  31  92 NW10G17   29.78R WCI  25
Lawrenceville  CLOUDY    37  34  89 W17G25    29.85R WCI  27
Litchfield     CLOUDY    33  32  97 W14       29.87R FOG     WCI  23
$$


CITY           SKY/WX    TMP DP  RH WIND       PRES   REMARKS
Lincoln        DRIZZLE   36  36 100 NW7       29.81R WCI  30
Macomb         CLOUDY    32  29  88 NW23G29   29.88R WCI  19
Mattoon        CLOUDY    35  34  96 W12G21    29.79R WCI  27
Mt Carmel AP   CLOUDY    36  33  89 W20       29.86R WCI  25
Olney-Noble AP CLOUDY    36  34  93 W13       29.87R WCI  27
Paris AP       CLOUDY    33  33  99 W15       29.79R WCI  23
Peoria         CLOUDY    35  31  85 NW12      29.80R WCI  27
Pontiac        CLOUDY    33  33  99 NW8       29.77R WCI  27
Rantoul        CLOUDY    37  36  99 W15       29.75R FOG     WCI  27
Robinson       CLOUDY    35  34  96 W18G25    29.84R WCI  24
Springfield    CLOUDY    36  34  92 NW14G23   29.84R FOG     WCI  27
Taylorville    CLOUDY    34  33  96 W18G26    29.84R FOG     WCI  23
$$

...REGIONAL REPORTS...


CITY           SKY/WX    TMP DP  RH WIND       PRES   REMARKS
Chicago O`Hare CLOUDY    31  27  85 NW14      29.69R WCI  21
Kankakee       CLOUDY   N/A N/A N/A NW13      29.73R
Moline         CLOUDY    32  26  78 NW14G22   29.82R WCI  22
Mount Sterling CLOUDY    31  28  88 NW18G24   29.88R WCI  19
Mount Vernon   CLOUDY    36  31  82 W12G18    29.91R WCI  28
Pittsfield     CLOUDY    33  30  88 W17G23    29.91R WCI  22
Quincy         CLOUDY    31  26  82 NW21G31   29.91R WCI  18
Rockford       CLOUDY    30  25  81 NW17      29.76R WCI  18
$$


CITY           SKY/WX    TMP DP  RH WIND       PRES   REMARKS
Burlington     CLOUDY    31  23  72 NW18G29   29.88R WCI  19
Cedar Rapids   CLOUDY    29  23  78 NW23G30   29.88R WCI  15
Des Moines     CLOUDY    27  21  78 NW20G28   30.02R WCI  13
Kirksville     CLOUDY    30  27  88 NW15G22   29.97R WCI  19
Ottumwa        CLOUDY    30  24  78 NW25G32   29.94R WCI  16
St Louis       CLOUDY    35  30  82 W20       29.92R WCI  24
$$


CITY           SKY/WX    TMP DP  RH WIND       PRES   REMARKS
Terre Haute    CLOUDY    35  32  88 W14       29.79R WCI  26
Evansville     CLOUDY    38  32  79 W15G28    29.90R WCI  29
Indianapolis   FLURRIES  34  32  92 W16       29.75R WCI  24
Lafayette      CLOUDY    34  32  92 W8        29.72R WCI  27
Madison        FLURRIES  26  20  77 N16G26    29.75R WCI  14
Milwaukee      CLOUDY    30  26  85 NW12G22   29.67R WCI  20
$$





USA.gov is the U.S. government's official web portal to all federal, state and local government web resources and services.